Regional Weather Roundup
Issued by NWS Raleigh/Durham, NC

Home | Current Version | Previous Version | Text Only | Print | Product List | Glossary On
Versions: 1 2 3 4 5 6 7 8 9 10 11 12 13 14 15 16 17 18 19 20 21 22 23 24 25 26 27 28 29 30 31 32 33 34 35 36 37 38 39 40 41 42 43 44 45 46 47 48 49 50
000
ASUS42 KRAH 230710
RWRRAH
NORTH CAROLINA WEATHER ROUNDUP
NATIONAL WEATHER SERVICE RALEIGH NC
200 AM EST THU FEB 23 2017

NOTE: "FAIR" INDICATES FEW OR NO CLOUDS BELOW 12,000 FEET WITH NO
SIGNIFICANT WEATHER AND/OR OBSTRUCTIONS TO VISIBILITY.

NCZ001-053-055-056-065-067-230800-
WESTERN NORTH CAROLINA

CITY           SKY/WX    TMP DP  RH WIND       PRES   REMARKS
ASHEVILLE      CLOUDY    49  48  97 CALM      29.94S FOG
JEFFERSON      CLOUDY    49  47  93 CALM      29.94S
MORGANTON      FOG       51  51 100 NW3       29.96F VSB 1/4
HICKORY        FOG       53  53 100 CALM      29.91F VSB 3/4
RUTHERFORDTON  CLOUDY    52  52 100 CALM      29.92F FOG
MOUNT AIRY     FOG       54  52  94 CALM      29.95S VSB 1/2
BOONE          FOG       43  43 100 CALM      29.96S VSB 1/2
$$

NCZ021-022-025-041-071-084-088-230800-
CENTRAL NORTH CAROLINA

CITY           SKY/WX    TMP DP  RH WIND       PRES   REMARKS
CHARLOTTE      CLOUDY    56  53  90 N5        29.92S
GREENSBORO     FOG       53  53 100 CALM      29.92S VSB 1
WINSTON-SALEM  FOG       52  50  93 CALM      29.93F VSB 3/4
RALEIGH-DURHAM CLOUDY    55  51  86 CALM      29.93S
FORT BRAGG     CLOUDY    53  52  94 N3        29.91F
FAYETTEVILLE   CLOUDY    54  52  93 N6        29.91S
BURLINGTON     CLOUDY    53  52  96 CALM      29.91F FOG
LAURINBURG     CLOUDY    56  53  90 CALM      29.91F
$$

NCZ011-015-027-028-043-044-047-080-103-230800-
NORTHEASTERN NORTH CAROLINA

CITY           SKY/WX    TMP DP  RH WIND       PRES   REMARKS
ROCKY MT-WILSO CLOUDY    53  52  96 CALM      29.93F
GREENVILLE     CLOUDY    54  52  94 CALM      29.96S
WASHINGTON     PTCLDY    52  50  93 CALM      29.94S
ELIZABETH CITY CLOUDY    54  51  90 SE3       29.94F
MANTEO         CLOUDY    57  54  88 CALM      29.95S
CAPE HATTERAS  HVY RAIN  62  58  86 VRB3      29.94S FOG
$$

NCZ078-087-090-091-093-098-101-230800-
SOUTHEASTERN NORTH CAROLINA

CITY           SKY/WX    TMP DP  RH WIND       PRES   REMARKS
LUMBERTON      CLOUDY    56  53  90 CALM      29.90F
GOLDSBORO      CLOUDY    53  53 100 CALM      29.91S
KINSTON        CLOUDY    52  51  96 CALM      29.94S
KENANSVILLE    NOT AVBL
NEW BERN       PTCLDY    50  50 100 CALM      29.94S
CHERRY POINT   NOT AVBL
BEAUFORT       CLEAR     54  52  93 CALM      29.92F
JACKSONVILLE   MOCLDY    53  53 100 N3        29.91F
WILMINGTON     PTCLDY    55  53  93 CALM      29.90F
$$




USA.gov is the U.S. government's official web portal to all federal, state and local government web resources and services.